Roseburg, OR

7:51 PM PST on November 19, 2019 (GMT -0800)
Roseburg Regional

Weather History for KRBG - September, 2019

Change the Weather History Date:

Wednesday, September 4, 2019

  Actual Average Record
Temperature  
Mean Temperature 71 °F 68 °F  
Max Temperature 83 °F 82 °F 102 °F (1955)
Min Temperature 58 °F 53 °F 41 °F (1958)
Degree Days  
Heating Degree Days 0 1  
Month to date heating degree days 0 4  
Since 1 July heating degree days 5 25  
Cooling Degree Days 6 4  
Month to date cooling degree days 32 16  
Year to date cooling degree days 635 427  
Growing Degree Days 20 (Base 50)    
Moisture  
Dew Point 55 °F    
Average Humidity 63    
Maximum Humidity 86    
Minimum Humidity 40    
Precipitation  
Precipitation 0.00 in 0.02 in 0.45 in (1978)
Month to date precipitation 0.00 0.09  
Year to date precipitation 22.77 19.74  
Sea Level Pressure  
Sea Level Pressure 29.98 in    
Wind  
Wind Speed 3 mph (North)    
Max Wind Speed 14 mph    
Max Gust Speed 16 mph    
Visibility 10 miles    
Events      
T = Trace of Precipitation, MM = Missing Value Source: NWS Daily Summary

Daily Weather History Graph

Daily Weather History Graph

Search for Another Location

Airport or City:

Astronomy

Sep. 04, 2019 Rise Set
Actual Time 6:40 AM PDT 7:43 PM PDT
Civil Twilight 6:11 AM PDT 8:12 PM PDT
Nautical Twilight 5:36 AM PDT 8:47 PM PDT
Astronomical Twilight 5:00 AM PDT 9:23 PM PDT
Moon 12:58 PM PDT (9/4) 11:10 PM PDT (9/4)
Length of Visible Light 14h 00m
Length of Day
13h 02m
Waxing Crescent, 36% of the Moon is Illuminated
Sep 4
Waxing Crescent
Sep 5
First Quarter
Sep 13
Full
Sep 21
Last Quarter
Sep 28
New

Hourly Weather History & Observations

Time (PDT) Temp. Heat Index Dew Point Humidity Pressure Visibility Wind Dir Wind Speed Gust Speed Precip Events Conditions
12:53 AM 64.0 °F - 54.0 °F 70% 30.03 in 10.0 mi Calm Calm - N/A   Clear
1:53 AM 63.0 °F - 54.0 °F 72% 30.03 in 10.0 mi North 3.5 mph - N/A   Clear
2:53 AM 62.1 °F - 54.0 °F 75% 30.02 in 10.0 mi Calm Calm - N/A   Clear
3:53 AM 61.0 °F - 55.0 °F 81% 30.03 in 10.0 mi Calm Calm - N/A   Clear
4:53 AM 60.1 °F - 54.0 °F 80% 30.02 in 10.0 mi Calm Calm - N/A   Clear
5:53 AM 57.9 °F - 53.1 °F 84% 30.01 in 10.0 mi Calm Calm - N/A   Scattered Clouds
6:53 AM 59.0 °F - 54.0 °F 83% 30.02 in 10.0 mi Calm Calm - N/A   Overcast
7:53 AM 60.1 °F - 55.0 °F 83% 30.03 in 10.0 mi Calm Calm - N/A   Overcast
8:53 AM 62.1 °F - 55.0 °F 78% 30.04 in 10.0 mi NNW 6.9 mph - N/A   Overcast
9:53 AM 62.1 °F - 55.0 °F 78% 30.04 in 10.0 mi NNE 6.9 mph - N/A   Overcast
10:53 AM 63.0 °F - 55.0 °F 75% 30.04 in 10.0 mi North 5.8 mph - N/A   Overcast
11:41 AM 64.0 °F - 55.0 °F 73% 30.04 in 10.0 mi NNW 3.5 mph - N/A   Overcast
11:53 AM 64.0 °F - 55.0 °F 73% 30.03 in 10.0 mi North 5.8 mph - N/A   Overcast
12:53 PM 66.9 °F - 55.0 °F 66% 30.01 in 10.0 mi Calm Calm - N/A   Overcast
1:53 PM 70.0 °F - 55.9 °F 61% 29.98 in 10.0 mi Calm Calm - N/A   Scattered Clouds
2:53 PM 75.0 °F - 57.0 °F 53% 29.94 in 10.0 mi North 5.8 mph - N/A   Clear
3:53 PM 79.0 °F - 57.0 °F 47% 29.92 in 10.0 mi Variable 4.6 mph - N/A   Clear
4:53 PM 82.0 °F 81.7 °F 57.0 °F 42% 29.90 in 10.0 mi North 9.2 mph - N/A   Clear
5:53 PM 82.9 °F 82.1 °F 55.9 °F 39% 29.89 in 10.0 mi NNW 9.2 mph - N/A   Clear
6:53 PM 82.0 °F 81.4 °F 55.0 °F 39% 29.88 in 10.0 mi NNW 5.8 mph - N/A   Clear
7:53 PM 79.0 °F - 55.0 °F 44% 29.89 in 10.0 mi North 3.5 mph - N/A   Clear
8:53 PM 73.0 °F - 55.9 °F 55% 29.91 in 10.0 mi Calm Calm - N/A   Clear
9:53 PM 72.0 °F - 55.9 °F 57% 29.91 in 10.0 mi Calm Calm - N/A   Clear
10:53 PM 69.1 °F - 55.9 °F 63% 29.92 in 10.0 mi Calm Calm - N/A   Clear
11:53 PM 66.0 °F - 55.9 °F 70% 29.91 in 10.0 mi Calm Calm - N/A   Clear